Location: City of London
(51.5141°N, 0.0937°W)
Time: 10:35:16
(UTC+00:00)

Daily predictions for brighter satellites

Satellite Brightness Start Highest point End
(mag) Time Altitude Azimuth Time Altitude Azimuth Time Altitude Azimuth
FALCON 9 DEB 3.3 21:01:30 10° WNW 21:04:45 71° N 21:08:01 10° E
Cosmos 1110 Rocket 4.3 21:00:43 10° S 21:05:45 47° ESE 21:10:50 10° NE
Helios 1A Rocket 3.1 21:01:52 10° SSE 21:05:53 61° ENE 21:09:57 10° N
Cosmos 2322 Rocket 4.3 21:02:42 10° NNW 21:06:45 19° NNE 21:10:47 10° ENE
ERS-1 Rocket 3.1 21:03:24 10° SSE 21:08:23 66° ENE 21:13:24 10° N
Resurs 01 Rocket 3.1 21:04:55 10° SSW 21:08:58 34° W 21:13:05 10° NNW
Cosmos 2228 3.0 21:06:08 10° N 21:10:22 72° ENE 21:14:36 10° SSE
Cosmos 2058 Rocket 4.4 21:07:22 10° N 21:11:08 26° ENE 21:14:53 10° SE
Cosmos 2184 Rocket 4.1 21:08:03 10° N 21:14:16 88° W 21:20:29 10° S
Lacrosse 5 4.0 21:13:19 10° W 21:16:29 17° WSW 21:19:38 10° SSW
IRAS Rocket 4.3 21:12:45 10° NNE 21:18:24 89° ESE 21:23:58 10° SSW
Cosmos 1408 4.3 21:16:30 10° SE 21:18:44 16° E 21:20:59 10° NE
Cosmos 968 Rocket 3.9 21:16:18 10° NNW 21:21:26 56° ENE 21:26:35 10° SE
Cosmos 1328 4.3 21:22:32 10° SSE 21:26:19 42° E 21:30:07 10° NNE
USA 276 1.9 21:23:47 10° W 21:26:48 66° S 21:29:49 10° E
Cosmos 2360 4.5 21:24:21 10° NW 21:30:04 69° WSW 21:35:45 10° SSE
H-2A R/B 4.0 21:26:11 10° N 21:30:11 34° WNW 21:34:13 10° SW
SJ 16-02 3.7 21:27:52 10° N 21:30:22 15° NE 21:32:50 10° ENE
Cosmos 1867 3.7 21:25:37 10° NW 21:31:07 75° NE 21:36:30 10° SE
Cosmos 1455 4.4 21:28:32 10° NW 21:31:36 23° W 21:34:40 10° SW
Cosmos 2082 Rocket 2.9 21:28:40 10° S 21:33:48 35° ESE 21:38:55 10° NE
USA 245 4.3 21:31:31 10° S 21:35:15 38° WSW 21:38:20 10° NNW
Cosmos 1536 Rocket 4.2 21:31:53 10° SSW 21:36:09 58° WNW 21:40:28 10° N
USA 267 4.3 21:31:51 10° ENE 21:36:52 23° SE 21:41:51 10° S
Cosmos 1606 Rocket 3.5 21:34:44 10° N 21:39:05 89° WNW 21:43:23 10° S
ARIANE 5 R/B 2.7 21:35:43 11° SSE 21:39:58 74° ENE 21:44:24 10° NNW
GP-B 4.1 21:36:06 10° NNE 21:40:06 32° E 21:43:34 13° SE
Cosmos 2341 Rocket 4.3 21:35:04 10° N 21:41:19 57° ENE 21:47:01 12° SSE
Cosmos 2360 Rocket 4.2 21:38:32 10° NNW 21:42:54 22° NE 21:47:13 10° E
Meteor 1-21 Rocket 4.2 21:38:56 10° S 21:44:33 86° ESE 21:50:19 10° NNE
Cosmos 192 4.5 21:44:09 10° S 21:48:55 54° ESE 21:53:43 10° NNE
Cosmos 1726 Rocket 3.7 21:57:29 10° NNW 22:01:49 69° W 22:05:41 13° S
Cosmos 1892 3.1 22:02:06 16° SSE 22:04:49 46° E 22:08:28 10° NNE
Nadezhda 1 Rocket 4.3 22:05:17 10° SSW 22:11:19 67° WNW 22:17:23 10° N
Cosmos 2181 Rocket 4.3 22:07:22 14° SSE 22:12:27 52° E 22:18:30 10° NNE
USA 234 3.5 22:07:02 10° ESE 22:13:35 75° NNE 22:20:09 10° WNW
Cosmos 1633 4.4 22:12:09 14° ESE 22:13:37 17° E 22:15:55 10° NE
Cosmos 1697 Rocket 3.9 22:11:24 10° NW 22:16:19 32° WSW 22:21:13 10° SSW
Cosmos 1980 Rocket 2.6 22:10:46 10° NW 22:16:22 59° WSW 22:20:52 16° S
SL-16 R/B 2.8 22:10:51 10° NNW 22:16:23 51° NE 22:21:23 13° SE
Cosmos 1486 Rocket 4.1 22:11:48 10° NNW 22:17:02 72° ENE 22:21:05 17° SSE
X-37B 2.8 22:17:55 10° SW 22:18:13 10° SSW 22:18:13 10° SSW
Cosmos 2219 Rocket 4.4 22:15:46 10° NNW 22:19:55 20° NNE 22:24:03 10° E
Cosmos 2369 4.3 22:14:24 10° NW 22:19:56 50° WSW 22:24:30 15° S
CZ-2C R/B 4.5 22:20:01 10° N 22:24:28 52° WNW 22:28:49 10° SW
TIMED 4.5 22:21:54 12° SSW 22:25:49 68° ESE 22:30:10 10° NNE
COSMOS 2406 3.4 22:22:04 10° SW 22:27:50 78° WNW 22:33:37 10° NNE
Cosmos-2242 4.1 22:24:32 10° N 22:28:26 33° ENE 22:31:12 16° SE
ATLAS 5 CENTAUR R/B 1.9 22:29:23 20° S 22:31:27 36° ESE 22:35:18 10° ENE
Cosmos 1869 3.2 22:28:48 10° N 22:32:42 76° ENE 22:35:09 22° SSE
Cosmos 1602 Rocket 4.3 22:32:11 20° SE 22:34:36 36° E 22:38:35 10° NNE
In-Cosmos 22 Rocket 4.2 22:30:23 15° S 22:34:55 72° E 22:40:20 10° NNE
Meteor 1-27 4.2 22:32:53 10° NNW 22:38:28 86° W 22:42:35 19° S
Terra 3.4 22:35:46 10° SSW 22:39:48 27° W 22:43:53 10° NW
FALCON 9 DEB 3.4 22:37:48 10° WNW 22:40:57 45° SSW 22:42:17 28° SSE
ASTEX 1 3.6 22:36:37 10° N 22:41:39 75° W 22:45:50 15° SSW
ALOS 2 3.4 22:39:48 17° SE 22:42:47 42° ENE 22:46:56 10° N
Cosmos 1833 Rocket 4.0 22:38:35 10° WSW 22:43:53 42° NW 22:49:15 10° NNE
Cosmos 1354 Rocket 4.3 22:39:57 10° NNW 22:45:16 64° ENE 22:49:06 18° SE
Cosmos 1892 Rocket 4.5 22:41:40 10° SSW 22:45:54 46° WNW 22:50:08 10° N
BREEZE-M DEB (TANK) 3.4 22:44:31 10° W 22:47:26 68° S 22:57:27 10° ESE
SL-8 Rocket 4.3 22:41:55 10° NNW 22:48:05 64° W 22:53:01 16° S
Cosmos 2058 Rocket 4.1 22:45:07 10° NNW 22:49:15 40° W 22:52:35 15° SSW
ADEOS Rocket 3.8 22:45:43 16° SE 22:51:42 64° ENE 22:59:23 10° NNW
Cosmos 2322 Rocket 2.5 22:46:17 10° NNW 22:51:57 64° NE 22:56:24 17° SE
Cosmos 1825 2.1 22:49:40 22° S 22:51:59 89° E 22:55:45 10° N
Cosmos 1408 3.6 22:50:12 12° SW 22:53:07 39° WNW 22:56:24 10° N
Cosmos 1503 Rocket 4.0 22:49:43 10° NNW 22:55:04 88° ENE 22:58:35 22° SSE
Cosmos 1626 Rocket 3.5 22:54:43 21° S 22:57:36 87° ESE 23:01:59 10° N
USA 276 2.5 22:59:30 10° W 23:02:23 39° SSW 23:02:50 36° S
Cosmos 2278 4.4 22:57:11 10° NW 23:02:36 44° WSW 23:06:17 19° S
Cosmos 1777 Rocket 4.4 22:57:48 10° NNW 23:03:04 60° ENE 23:06:53 18° SE
Cosmos 2333 Rocket 3.3 23:01:36 10° NNW 23:07:03 40° NE 23:12:28 10° ESE
Cosmos 2366 rocket 4.5 23:00:59 10° NNW 23:07:09 56° W 23:12:00 17° SSW
SJ 16-02 1.4 23:05:15 10° NNW 23:09:43 77° ENE 23:12:19 24° SSE
Cosmos 1825 Rocket 4.4 23:08:17 23° SE 23:10:23 37° E 23:14:23 10° NNE
Gbstr 26 Del rocket 4.4 23:11:09 21° SE 23:11:18 21° SE 23:15:00 10° E
Cosmos 1340 Rocket 4.2 23:13:04 20° SE 23:14:38 25° E 23:17:55 10° NE
Cosmos 2082 Rocket 3.1 23:12:11 10° SW 23:17:44 50° NW 23:23:18 10° NNE
Meteor 2-20 4.4 23:13:52 21° S 23:18:05 76° E 23:24:11 10° NNE
H-2A R/B 3.7 23:14:39 10° NNE 23:18:49 58° ESE 23:20:55 27° S
USA 267 3.2 23:14:12 10° ENE 23:20:44 66° SE 23:27:14 10° SW
Cosmos 2221 3.7 23:21:33 10° N 23:25:33 34° ENE 23:28:17 17° SE
Cosmos 1606 2.6 23:22:34 10° N 23:26:28 90° WSW 23:28:16 30° S
Cosmos 2360 Rocket 2.3 23:22:09 10° NNW 23:27:52 76° ENE 23:32:00 19° SE
Cosmos 2058 3.3 23:26:08 27° SSE 23:28:06 50° E 23:32:11 10° NNE
Cosmos 1934 Rocket 4.2 23:22:50 10° N 23:28:54 63° ENE 23:33:06 21° SSE
Spot 4 4.3 23:27:39 23° SSW 23:30:26 50° W 23:35:08 10° NNW
Meteor 2-2 Rocket 4.4 23:34:36 10° NNW 23:40:40 85° ENE 23:44:36 23° SSE
Cosmos 44 4.2 23:41:21 24° SSE 23:42:43 28° ESE 23:46:33 10° ENE
Cosmos 2237 4.4 23:37:50 10° NW 23:43:30 61° WSW 23:46:53 24° S
Meteor 2-20 Rocket 4.4 23:42:26 23° S 23:46:31 88° ESE 23:52:40 10° N
Cosmos 1633 3.5 23:45:55 21° SW 23:47:49 38° WNW 23:51:07 10° N
Cosmos 1758 Rocket 3.9 23:45:44 22° SSW 23:48:24 58° WNW 23:52:46 10° N
Cosmos 2237 Rocket 4.4 23:47:23 10° NNW 23:51:57 24° NE 23:56:28 10° E
COSMOS 2428 3.7 23:48:21 10° NNW 23:53:51 45° NE 23:59:19 10° ESE
